EW7912 Weather Reports


time (UTC)temp
F
wind
direction
speed
knots
gust
knots
rain 1hr
in
rain 24hr
in
rain mn
in
humidity
%
barometer
mb
20260506110351 75 250 0.9 3.5 0.00 0.00 0.00 90 1009.0
20260506110333 75 238 0.9 3.5 0.00 0.00 0.00 90 1009.0
20260506105347 75 9 0.9 3.5 0.00 0.00 0.00 90 1008.8
20260506104848 75 217 0.9 3.5 0.00 0.00 0.00 90 1008.7
20260506104608 75 177 0.9 3.5 0.00 0.00 0.00 90 1008.8
20260506103848 75 241 0.9 3.5 0.00 0.00 0.00 90 1008.7
20260506103344 75 207 0.9 2.6 0.00 0.00 0.00 90 1008.6
20260506103327 75 230 0.9 2.6 0.00 0.00 0.00 90 1008.6
20260506102343 75 251 0.9 5.2 0.00 0.00 0.00 90 1008.6
20260506101844 75 197 0.9 5.2 0.00 0.00 0.00 90 1008.7
20260506101344 75 265 0.9 4.3 0.00 0.00 0.00 90 1008.5
20260506100843 75 213 0.9 2.6 0.00 0.00 0.00 90 1008.5
20260506100345 75 201 0.9 2.6 0.00 0.00 0.00 90 1008.5
20260506095846 75 290 0.9 5.2 0.00 0.00 0.00 90 1008.5
20260506095344 75 252 0.9 5.2 0.00 0.00 0.00 90 1008.5
20260506094844 75 249 0.9 3.5 0.00 0.00 0.00 90 1008.4
20260506094541 75 236 0.9 3.5 0.00 0.00 0.00 90 1008.5
20260506094430 75 235 0.9 3.5 0.00 0.00 0.00 90 1008.5
20260506093326 75 250 0.9 3.5 0.00 0.00 0.00 90 1008.5
20260506092820 75 248 0.0 2.6 0.00 0.00 0.00 90 1008.4
20260506092315 75 229 0.9 3.5 0.00 0.00 0.00 90 1008.4
20260506092025 75 262 0.9 4.3 0.00 0.00 0.00 90 1008.4
20260506091303 75 202 0.9 4.3 0.00 0.00 0.00 90 1008.3
20260506090756 75 228 0.9 4.3 0.00 0.00 0.00 90 1008.3
20260506090250 75 267 1.7 4.3 0.00 0.00 0.00 90 1008.3
20260506085743 75 238 0.9 4.3 0.00 0.00 0.00 90 1008.3
20260506085430 75 213 1.7 6.1 0.00 0.00 0.00 90 1008.2
20260506085320 75 232 1.7 4.3 0.00 0.00 0.00 90 1008.2
20260506084225 75 178 1.7 7.0 0.00 0.00 0.00 90 1008.1
20260506083721 75 179 1.7 7.0 0.00 0.00 0.00 90 1008.1
20260506083214 75 237 0.9 4.3 0.00 0.00 0.00 90 1008.2
20260506082708 75 128 0.9 4.3 0.00 0.00 0.00 90 1008.2
20260506082202 75 194 0.9 3.5 0.00 0.00 0.00 90 1008.2
20260506081656 75 200 1.7 3.5 0.00 0.00 0.00 90 1008.3
20260506081150 75 239 0.9 3.5 0.00 0.00 0.00 90 1008.3
20260506080645 75 188 0.9 3.5 0.00 0.00 0.00 90 1008.3
20260506080634 75 224 1.7 3.5 0.00 0.00 0.00 90 1008.3
20260506073325 75 218 0.9 3.5 0.00 0.00 0.00 89 1008.6
20260506072556 75 236 0.9 3.5 0.00 0.00 0.00 89 1008.6
20260506072308 75 196 0.9 3.5 0.00 0.00 0.00 89 1008.4
20260506071543 75 205 0.9 3.5 0.00 0.00 0.00 89 1008.2
20260506071038 75 188 0.9 4.3 0.00 0.00 0.00 89 1008.5
20260506070545 75 214 0.9 4.3 0.00 0.00 0.00 89 1008.5
20260506062444 75 196 0.0 0.9 0.00 0.00 0.00 87 1008.3
20260506061938 75 228 0.9 3.5 0.00 0.00 0.00 87 1008.4
20260506061432 75 197 0.0 3.5 0.00 0.00 0.00 87 1008.5
20260506061146 75 98 0.0 1.7 0.00 0.00 0.00 87 1008.4
20260506060433 76 96 0.0 1.7 0.00 0.00 0.00 87 1008.4
20260506051320 76 212 0.9 3.5 0.00 0.00 0.00 86 1008.2
20260506050814 76 300 0.0 1.7 0.00 0.00 0.00 85 1008.1
20260506050312 77 13 0.9 3.5 0.00 0.00 0.00 85 1008.1
20260506044809 77 184 0.0 2.6 0.00 0.00 0.00 85 1008.3
20260506044532 77 220 0.0 2.6 0.00 0.00 0.00 85 1008.3
20260506043810 77 211 0.9 2.6 0.00 0.00 0.00 85 1008.3
20260506043307 77 219 0.9 2.6 0.00 0.00 0.00 85 1008.4
20260506043029 77 212 0.9 3.5 0.00 0.00 0.00 85 1008.3
20260506042306 77 208 0.9 3.5 0.00 0.00 0.00 85 1008.2
20260506042259 77 229 0.9 2.6 0.00 0.00 0.00 84 1007.9
20260506041304 77 217 0.9 2.6 0.00 0.00 0.00 84 1007.8
20260506040803 77 202 0.9 2.6 0.00 0.00 0.00 84 1007.7
20260506040308 77 216 0.9 4.3 0.00 0.00 0.00 84 1007.6
20260506035801 77 215 0.9 4.3 0.00 0.00 0.00 84 1007.7
20260506035305 77 276 0.9 3.5 0.00 0.00 0.00 84 1007.6
20260506035237 77 271 0.9 4.3 0.00 0.00 0.00 84 1007.4
20260506034301 77 250 1.7 4.3 0.00 0.00 0.00 84 1007.4
20260506033801 77 232 0.9 3.5 0.00 0.00 0.00 84 1007.4
20260506033256 77 229 0.9 3.5 0.00 0.00 0.00 84 1007.3
20260506033016 77 277 0.9 3.5 0.00 0.00 0.00 84 1007.2
20260506032243 78 59 0.9 3.5 0.00 0.00 0.00 83 1007.1
20260506031737 78 194 0.9 3.5 0.00 0.00 0.00 83 1007.0
20260506031231 78 161 0.9 3.5 0.00 0.00 0.00 83 1007.1
20260506030725 78 192 0.0 3.5 0.00 0.00 0.00 83 1007.2
20260506030220 78 103 0.0 1.7 0.00 0.00 0.00 83 1007.1
20260506025715 78 103 0.0 1.7 0.00 0.00 0.00 82 1007.0
20260506025216 78 102 0.0 1.7 0.00 0.00 0.00 82 1006.9
20260506024718 79 112 0.0 1.7 0.00 0.00 0.00 82 1006.7
20260506024213 79 130 0.0 1.7 0.00 0.00 0.00 82 1006.7
20260506023711 79 122 0.0 0.9 0.00 0.00 0.00 81 1006.7
20260506023212 79 121 0.0 1.7 0.00 0.00 0.00 81 1006.8
20260506022709 79 128 0.0 1.7 0.00 0.00 0.00 81 1006.7
20260506022210 80 155 0.0 1.7 0.00 0.00 0.00 80 1006.6
20260506021710 80 161 0.0 1.7 0.00 0.00 0.00 80 1006.6
20260506021210 80 161 0.0 1.7 0.00 0.00 0.00 80 1006.8
20260506020710 80 159 0.0 0.9 0.00 0.00 0.00 80 1006.9
20260506020206 80 159 0.0 1.7 0.00 0.00 0.00 80 1006.8
20260506015706 80 159 0.0 1.7 0.00 0.00 0.00 80 1006.6
20260506015205 80 202 0.0 0.9 0.00 0.00 0.00 79 1006.4
20260506014928 81 202 0.0 0.9 0.00 0.00 0.00 79 1006.4
20260506014432 81 202 0.0 1.7 0.00 0.00 0.00 79 1006.4
20260506013706 81 202 0.9 2.6 0.00 0.00 0.00 78 1006.4
20260506013205 81 199 0.9 2.6 0.00 0.00 0.00 78 1006.3
20260506012706 81 209 0.0 2.6 0.00 0.00 0.00 78 1006.3
20260506012430 81 226 0.0 0.9 0.00 0.00 0.00 77 1006.2
20260506011702 82 226 0.0 0.9 0.00 0.00 0.00 77 1006.3
20260506011201 82 226 0.0 1.7 0.00 0.00 0.00 77 1006.1
20260506010701 82 232 0.0 1.7 0.00 0.00 0.00 77 1006.0
20260506010201 82 217 0.0 2.6 0.00 0.00 0.00 76 1006.1
20260506005701 83 216 0.0 2.6 0.00 0.00 0.00 76 1006.0
20260506005201 83 236 0.0 2.6 0.00 0.00 0.00 76 1005.9
20260506004701 83 236 0.9 2.6 0.00 0.00 0.00 76 1005.7
20260506004202 83 186 0.9 2.6 0.00 0.00 0.00 75 1005.7
20260506003702 83 76 0.9 3.5 0.00 0.00 0.00 75 1005.7
20260506003155 84 67 0.9 3.5 0.00 0.00 0.00 75 1005.6
20260506002655 84 221 0.0 2.6 0.00 0.00 0.00 75 1005.6
20260506002418 84 213 0.0 1.7 0.00 0.00 0.00 75 1005.6
20260506001653 84 213 0.9 3.5 0.00 0.00 0.00 75 1005.5
20260506001631 84 215 0.9 6.1 0.00 0.00 0.00 75 1005.4
20260506000651 84 236 0.9 6.1 0.00 0.00 0.00 75 1005.4
20260506000150 84 200 0.9 5.2 0.00 0.00 0.00 75 1005.5
20260505235647 84 263 1.7 5.2 0.00 0.00 0.00 75 1005.5
20260505235147 84 94 1.7 4.3 0.00 0.00 0.00 75 1005.5
20260505234647 84 233 1.7 4.3 0.00 0.00 0.00 75 1005.4
20260505234409 84 180 1.7 5.2 0.00 0.00 0.00 74 1005.3
20260505233912 84 186 1.7 5.2 0.00 0.00 0.00 74 1005.4
20260505233146 84 228 2.6 7.0 0.00 0.00 0.00 74 1005.5
20260505232646 84 155 2.6 7.0 0.00 0.00 0.00 74 1005.3
20260505232147 84 271 2.6 8.7 0.00 0.00 0.00 74 1005.3
20260505231647 84 288 2.6 8.7 0.00 0.00 0.00 73 1005.3
20260505231147 85 229 2.6 7.0 0.00 0.00 0.00 73 1005.3
20260505230653 85 205 2.6 7.8 0.00 0.00 0.00 73 1005.3
20260505230359 85 255 2.6 7.8 0.00 0.00 0.00 73 1005.4
20260505225630 85 223 2.6 7.0 0.00 0.00 0.00 73 1005.3
20260505225130 85 325 1.7 7.8 0.00 0.00 0.00 73 1005.3
20260505224630 85 151 3.5 9.6 0.00 0.00 0.00 72 1005.4
20260505224130 85 259 3.5 9.6 0.00 0.00 0.00 72 1005.4
20260505223628 85 234 2.6 8.7 0.00 0.00 0.00 72 1005.3
20260505223128 85 211 3.5 9.6 0.00 0.00 0.00 72 1005.2
20260505222628 85 248 3.5 9.6 0.00 0.00 0.00 71 1005.2
20260505222126 85 222 2.6 8.7 0.00 0.00 0.00 71 1005.2
20260505221627 86 190 2.6 7.8 0.00 0.00 0.00 71 1005.3
20260505221347 86 225 2.6 7.8 0.00 0.00 0.00 71 1005.4
20260505220624 86 220 2.6 7.8 0.00 0.00 0.00 71 1005.4
20260505220345 86 189 2.6 7.8 0.00 0.00 0.00 72 1005.4
20260505215624 86 209 2.6 4.3 0.00 0.00 0.00 73 1005.6
20260505215345 85 269 2.6 7.8 0.00 0.00 0.00 73 1005.6
20260505214627 85 233 3.5 7.8 0.00 0.00 0.00 73 1005.7
20260505214122 85 187 3.5 7.8 0.00 0.00 0.00 73 1005.7
20260505213622 85 217 3.5 8.7 0.00 0.00 0.00 72 1005.8
20260505213339 85 202 2.6 8.7 0.00 0.00 0.00 73 1005.8
20260505212610 85 237 3.5 10.4 0.00 0.00 0.00 73 1006.0
20260505212103 85 217 3.5 10.4 0.00 0.00 0.00 73 1006.0
20260505211557 85 202 3.5 8.7 0.00 0.00 0.00 74 1006.0
20260505211052 85 188 3.5 7.0 0.00 0.00 0.00 74 1005.9
20260505210545 84 225 3.5 9.6 0.00 0.00 0.00 74 1006.1
20260505210040 84 204 3.5 9.6 0.00 0.00 0.00 74 1006.0
20260505205534 84 264 3.5 9.6 0.00 0.00 0.00 74 1006.0
20260505205028 84 205 2.6 9.6 0.00 0.00 0.00 74 1006.1
20260505204523 84 254 2.6 9.6 0.00 0.00 0.00 75 1006.3
20260505204016 84 215 2.6 6.1 0.00 0.00 0.00 75 1006.3
20260505203510 83 185 2.6 7.8 0.00 0.00 0.00 75 1006.4
20260505203004 83 329 2.6 9.6 0.00 0.00 0.00 75 1006.4
20260505202458 83 208 3.5 9.6 0.00 0.00 0.00 74 1006.5
20260505201951 83 233 2.6 7.0 0.00 0.00 0.00 75 1006.4
20260505201447 83 300 3.5 7.0 0.00 0.00 0.00 75 1006.5
20260505200940 83 248 3.5 7.8 0.00 0.00 0.00 75 1006.5
20260505200434 83 240 3.5 9.6 0.00 0.00 0.00 75 1006.6
20260505195928 83 239 4.3 9.6 0.00 0.00 0.00 74 1006.7
20260505195422 83 248 4.3 10.4 0.00 0.00 0.00 75 1006.7
20260505194916 83 221 4.3 10.4 0.00 0.00 0.00 75 1006.6
20260505194410 83 197 4.3 9.6 0.00 0.00 0.00 75 1006.8
20260505193905 82 221 4.3 9.6 0.00 0.00 0.00 75 1006.7
20260505193357 83 239 4.3 13.0 0.00 0.00 0.00 75 1006.7
20260505192852 83 190 4.3 13.0 0.00 0.00 0.00 75 1006.7
20260505192347 82 188 4.3 10.4 0.00 0.00 0.00 75 1006.7
20260505191840 82 215 5.2 12.2 0.00 0.00 0.00 75 1006.7
20260505191334 82 211 5.2 12.2 0.00 0.00 0.00 75 1006.7
20260505190827 82 244 5.2 14.8 0.00 0.00 0.00 76 1006.8
20260505190322 82 206 5.2 14.8 0.00 0.00 0.00 76 1006.8
20260505185816 82 200 3.5 10.4 0.00 0.00 0.00 77 1006.7
20260505185546 82 286 3.5 7.0 0.00 0.00 0.00 77 1007.0
20260505184814 81 194 4.3 13.0 0.00 0.00 0.00 78 1006.9
20260505184312 81 254 4.3 13.0 0.00 0.00 0.00 77 1007.0
20260505183812 81 190 4.3 12.2 0.00 0.00 0.00 78 1006.9
20260505183312 80 183 4.3 12.2 0.00 0.00 0.00 78 1006.9
20260505182810 80 267 4.3 8.7 0.00 0.00 0.00 78 1007.0
20260505182311 80 215 4.3 9.6 0.00 0.00 0.00 78 1007.2
20260505181809 80 217 4.3 11.3 0.00 0.00 0.00 78 1007.2
20260505181308 80 220 4.3 11.3 0.00 0.00 0.00 78 1007.3
20260505180820 80 237 5.2 12.2 0.00 0.00 0.00 78 1007.3
20260505180307 80 267 5.2 12.2 0.00 0.00 0.00 78 1007.3
20260505175808 80 224 5.2 12.2 0.00 0.00 0.00 78 1007.3
20260505175308 80 242 5.2 12.2 0.00 0.00 0.00 78 1007.3
20260505175024 80 233 5.2 11.3 0.00 0.00 0.00 79 1007.3
20260505174308 79 246 5.2 12.2 0.00 0.00 0.00 79 1007.3
20260505174031 79 198 5.2 12.2 0.00 0.00 0.00 79 1007.4
20260505173308 79 213 5.2 13.9 0.00 0.00 0.00 80 1007.4
20260505172808 79 200 4.3 13.9 0.00 0.00 0.00 81 1007.3
20260505172305 78 207 4.3 10.4 0.00 0.00 0.00 82 1007.5
20260505171756 78 231 4.3 10.4 0.00 0.00 0.00 81 1007.6
20260505171246 78 245 2.6 7.8 0.00 0.00 0.00 82 1007.6
20260505171011 77 217 2.6 7.0 0.00 0.00 0.00 82 1007.7
20260505170234 77 229 4.3 11.3 0.00 0.00 0.00 82 1007.9
20260505165728 77 342 4.3 11.3 0.00 0.00 0.00 82 1007.9
20260505165223 77 193 2.6 7.0 0.00 0.00 0.00 82 1007.9
20260505164945 77 236 3.5 10.4 0.00 0.00 0.00 83 1007.9
20260505164210 77 229 3.5 10.4 0.00 0.00 0.00 83 1007.7
20260505163705 76 265 3.5 10.4 0.00 0.00 0.00 83 1007.8
20260505163158 76 263 4.3 10.4 0.00 0.00 0.00 83 1008.0
20260505162651 76 266 4.3 16.5 0.00 0.00 0.00 83 1008.0
20260505162146 76 194 4.3 16.5 0.00 0.00 0.00 84 1007.9
20260505161644 76 198 3.5 8.7 0.00 0.00 0.00 84 1007.8
20260505161142 75 173 3.5 10.4 0.00 0.00 0.00 84 1007.8
20260505160642 75 215 3.5 10.4 0.00 0.00 0.00 84 1007.8
20260505160405 75 234 3.5 7.8 0.00 0.00 0.00 84 1007.7
20260505153140 74 216 3.5 9.6 0.00 0.00 0.00 85 1007.8
20260505152640 74 284 2.6 9.6 0.00 0.00 0.00 85 1007.6
20260505152406 74 189 3.5 9.6 0.00 0.00 0.00 85 1007.6
20260505151640 73 215 4.3 12.2 0.00 0.00 0.00 85 1007.5
20260505151141 73 174 3.5 12.2 0.00 0.00 0.00 85 1007.7
20260505150644 73 232 3.5 7.8 0.00 0.00 0.00 85 1007.7
20260505150141 73 279 2.6 7.8 0.00 0.00 0.00 85 1007.7
20260505140634 72 245 2.6 7.0 0.00 0.00 0.00 86 1007.8
20260505140133 72 200 3.5 7.0 0.00 0.00 0.00 86 1007.8
20260505124630 71 271 3.5 9.6 0.00 0.00 0.00 88 1007.6
20260505124129 71 244 2.6 9.6 0.00 0.00 0.00 88 1007.6
20260505123623 71 215 1.7 5.2 0.00 0.00 0.00 88 1007.5
20260505123116 71 222 1.7 5.2 0.00 0.00 0.00 88 1007.4
20260505122611 71 245 2.6 7.8 0.00 0.00 0.00 88 1007.4
20260505122105 71 232 3.5 8.7 0.00 0.00 0.00 88 1007.3
20260505121559 70 248 2.6 8.7 0.00 0.00 0.00 88 1007.3
20260505121053 70 228 2.6 8.7 0.00 0.00 0.00 88 1007.3
20260505120547 70 205 2.6 8.7 0.00 0.00 0.00 88 1007.2
20260505120056 70 225 1.7 7.8 0.00 0.00 0.00 88 1007.0
20260505115543 70 269 1.7 5.2 0.00 0.00 0.00 88 1006.8
20260505115043 70 213 2.6 7.0 0.00 0.00 0.00 88 1006.8
20260505114542 70 236 2.6 7.0 0.00 0.00 0.00 88 1006.9
20260505114308 70 207 1.7 7.0 0.00 0.00 0.00 88 1006.8
20260505113541 70 209 2.6 7.8 0.00 0.00 0.00 88 1006.8
20260505113041 70 238 3.5 8.7 0.00 0.00 0.00 88 1006.9
20260505112542 70 211 2.6 8.7 0.00 0.00 0.00 88 1006.9
20260505112041 70 225 1.7 7.0 0.00 0.00 0.00 88 1007.0
20260505111539 70 231 1.7 7.0 0.00 0.00 0.00 88 1007.0
20260505111039 70 216 1.7 7.0 0.00 0.00 0.00 88 1007.0